BCS082 EDDM-EKCH

Flight info

Callsign BCS082
Flight time 1h 20m
Altitude 36000
Route INPUD3Q INPUD Y102 UPALA M726 LONLI/N0447F380 M726 LASGA/N0446F370 DCT BKD/N0451F380 DCT LUWIL DCT BERIM/N0447F370 DCT MAKEL N851 GESKA Z711 MONAK
Aircraft A333/H-SDE3GHIJ2J3J5M1RVWXY/LB2D1

Departure

Time 2026-05-04 17:59
Airport Munich Airport (EDDM)

Arrival

Time 2026-05-04 19:19
Airport Copenhagen Kastrup Airport (EKCH)
Time Latitude Longitude Altitude Speed Heading
2026-05-04 16:50 48.34879 11.77061 1462 ft 0 kts 354°
2026-05-04 17:32 48.34844 11.77069 1459 ft 4 kts 347°
2026-05-04 17:33 48.34783 11.77125 1459 ft 2 kts 265°
2026-05-04 17:33 48.34783 11.77127 1459 ft 5 kts 263°
2026-05-04 17:37 48.34782 11.77117 1459 ft 2 kts 263°
2026-05-04 17:37 48.34779 11.77083 1459 ft 4 kts 263°
2026-05-04 17:37 48.34776 11.77036 1462 ft 5 kts 263°
2026-05-04 17:38 48.34771 11.76975 1463 ft 6 kts 263°
2026-05-04 17:38 48.34766 11.76902 1465 ft 8 kts 263°
2026-05-04 17:38 48.34759 11.76818 1470 ft 9 kts 263°
2026-05-04 17:38 48.34752 11.76721 1461 ft 10 kts 263°
2026-05-04 17:39 48.34734 11.76496 1463 ft 12 kts 263°
2026-05-04 17:39 48.34725 11.76370 1462 ft 12 kts 263°
2026-05-04 17:39 48.34715 11.76245 1464 ft 12 kts 264°
2026-05-04 17:40 48.34705 11.76111 1467 ft 13 kts 264°
2026-05-04 17:40 48.34694 11.75968 1460 ft 14 kts 263°
2026-05-04 17:40 48.34681 11.75824 1462 ft 12 kts 257°
2026-05-04 17:40 48.34679 11.75812 1462 ft 0 kts 253°
2026-05-04 17:42 48.34679 11.75810 1462 ft 1 kts 253°
2026-05-04 17:42 48.34669 11.75778 1468 ft 4 kts 236°
2026-05-04 17:42 48.34642 11.75754 1465 ft 5 kts 200°
2026-05-04 17:43 48.34607 11.75749 1465 ft 6 kts 180°
2026-05-04 17:43 48.34560 11.75755 1465 ft 9 kts 174°
2026-05-04 17:43 48.34512 11.75798 1463 ft 7 kts 118°
2026-05-04 17:43 48.34508 11.75879 1462 ft 8 kts 85°
2026-05-04 17:44 48.34514 11.75969 1464 ft 9 kts 84°
2026-05-04 17:44 48.34522 11.76071 1462 ft 10 kts 84°
2026-05-04 17:44 48.34530 11.76184 1470 ft 11 kts 84°
2026-05-04 17:44 48.34539 11.76306 1460 ft 12 kts 84°
2026-05-04 17:45 48.34549 11.76435 1462 ft 13 kts 83°
2026-05-04 17:45 48.34560 11.76572 1468 ft 14 kts 83°
2026-05-04 17:45 48.34571 11.76717 1470 ft 14 kts 83°
2026-05-04 17:45 48.34583 11.76871 1461 ft 15 kts 83°
2026-05-04 17:46 48.34595 11.77032 1460 ft 16 kts 83°
2026-05-04 17:46 48.34608 11.77201 1470 ft 17 kts 83°
2026-05-04 17:46 48.34622 11.77385 1462 ft 21 kts 83°
2026-05-04 17:46 48.34640 11.77620 1467 ft 23 kts 83°
2026-05-04 17:47 48.34658 11.77861 1468 ft 24 kts 84°
2026-05-04 17:47 48.34678 11.78110 1470 ft 24 kts 83°
2026-05-04 17:47 48.34698 11.78364 1461 ft 25 kts 83°
2026-05-04 17:47 48.34718 11.78622 1464 ft 25 kts 83°
2026-05-04 17:48 48.34738 11.78884 1462 ft 25 kts 83°
2026-05-04 17:48 48.34757 11.79143 1471 ft 25 kts 83°
2026-05-04 17:48 48.34777 11.79402 1465 ft 26 kts 83°
2026-05-04 17:48 48.34796 11.79660 1462 ft 22 kts 84°
2026-05-04 17:49 48.34814 11.79893 1466 ft 23 kts 83°
2026-05-04 17:49 48.34833 11.80126 1467 ft 22 kts 83°
2026-05-04 17:49 48.34849 11.80338 1468 ft 18 kts 84°
2026-05-04 17:49 48.34831 11.80492 1463 ft 15 kts 124°
2026-05-04 17:50 48.34752 11.80557 1461 ft 13 kts 169°
2026-05-04 17:50 48.34672 11.80571 1459 ft 11 kts 175°
2026-05-04 17:50 48.34611 11.80551 1460 ft 6 kts 209°
2026-05-04 17:50 48.34597 11.80535 1460 ft 0 kts 216°
2026-05-04 17:56 48.34577 11.80513 1459 ft 7 kts 217°
2026-05-04 17:56 48.34536 11.80457 1458 ft 9 kts 225°
2026-05-04 17:57 48.34494 11.80401 1463 ft 7 kts 221°
2026-05-04 17:57 48.34472 11.80355 1463 ft 4 kts 249°
2026-05-04 17:57 48.34468 11.80325 1464 ft 2 kts 262°
2026-05-04 17:57 48.34468 11.80322 1464 ft 0 kts 262°
2026-05-04 17:58 48.34466 11.80302 1464 ft 12 kts 262°
2026-05-04 17:58 48.34431 11.79857 1467 ft 74 kts 264°
2026-05-04 17:58 48.34349 11.78777 1459 ft 132 kts 263°
2026-05-04 17:58 48.34226 11.77152 1467 ft 181 kts 260°
2026-05-04 17:59 48.34055 11.75215 2191 ft 184 kts 262°
2026-05-04 17:59 48.33918 11.73337 3095 ft 183 kts 262°
2026-05-04 17:59 48.33654 11.69004 3817 ft 229 kts 273°
2026-05-04 18:00 48.34100 11.66675 4404 ft 239 kts 302°
2026-05-04 18:00 48.35338 11.64936 4881 ft 257 kts 335°
2026-05-04 18:00 48.37105 11.64210 5435 ft 270 kts 351°
2026-05-04 18:00 48.38969 11.63813 6156 ft 278 kts 353°
2026-05-04 18:01 48.40926 11.63422 6718 ft 282 kts 352°
2026-05-04 18:01 48.42863 11.63013 6949 ft 286 kts 351°
2026-05-04 18:01 48.44826 11.62580 6991 ft 287 kts 351°
2026-05-04 18:02 48.48788 11.61675 6944 ft 287 kts 350°
2026-05-04 18:02 48.50759 11.61218 6979 ft 286 kts 351°
2026-05-04 18:02 48.52736 11.60758 7336 ft 288 kts 350°
2026-05-04 18:02 48.54734 11.60291 8083 ft 293 kts 349°
2026-05-04 18:03 48.56754 11.59754 8941 ft 296 kts 343°
2026-05-04 18:03 48.58732 11.58827 9730 ft 300 kts 338°
2026-05-04 18:03 48.60732 11.57802 10333 ft 311 kts 338°
2026-05-04 18:03 48.62845 11.56662 10651 ft 332 kts 337°
2026-05-04 18:04 48.65063 11.55413 11051 ft 348 kts 336°
2026-05-04 18:04 48.67352 11.54093 11661 ft 355 kts 336°
2026-05-04 18:04 48.72033 11.51358 13112 ft 365 kts 336°
2026-05-04 18:05 48.74410 11.49964 13840 ft 369 kts 336°
2026-05-04 18:05 48.76817 11.48551 14519 ft 372 kts 336°
2026-05-04 18:05 48.79238 11.47131 15213 ft 374 kts 336°
2026-05-04 18:05 48.81672 11.45702 15911 ft 377 kts 336°
2026-05-04 18:06 48.86569 11.42825 17306 ft 382 kts 336°
2026-05-04 18:06 48.89049 11.41366 17985 ft 384 kts 336°
2026-05-04 18:06 48.91554 11.39889 18567 ft 387 kts 336°
2026-05-04 18:07 48.94074 11.38403 18853 ft 389 kts 336°
2026-05-04 18:07 48.96639 11.37029 18973 ft 393 kts 343°
2026-05-04 18:07 48.99344 11.36243 19488 ft 396 kts 349°
2026-05-04 18:07 49.02080 11.35685 20089 ft 398 kts 351°
2026-05-04 18:08 49.04849 11.35260 20604 ft 402 kts 352°
2026-05-04 18:08 49.07654 11.34911 21133 ft 406 kts 353°
2026-05-04 18:08 49.10483 11.34593 21665 ft 409 kts 353°
2026-05-04 18:08 49.13337 11.34279 22168 ft 412 kts 353°
2026-05-04 18:09 49.19059 11.33627 23123 ft 412 kts 353°
2026-05-04 18:09 49.24846 11.32935 23828 ft 422 kts 353°
2026-05-04 18:10 49.27783 11.32575 24239 ft 425 kts 353°
2026-05-04 18:10 49.30742 11.32211 24645 ft 427 kts 353°
2026-05-04 18:10 49.33719 11.31844 25065 ft 430 kts 353°
2026-05-04 18:10 49.36714 11.31474 25479 ft 432 kts 353°
2026-05-04 18:11 49.39712 11.31105 25881 ft 434 kts 353°
2026-05-04 18:11 49.42729 11.30734 26298 ft 436 kts 352°
2026-05-04 18:11 49.45762 11.30360 26705 ft 438 kts 352°
2026-05-04 18:11 49.48803 11.29984 27105 ft 440 kts 352°
2026-05-04 18:12 49.51866 11.29605 27542 ft 442 kts 352°
2026-05-04 18:12 49.54941 11.29222 27892 ft 445 kts 352°
2026-05-04 18:12 49.58034 11.28836 28233 ft 448 kts 352°
2026-05-04 18:12 49.61156 11.28446 28520 ft 452 kts 352°
2026-05-04 18:13 49.64312 11.28051 28826 ft 456 kts 352°
2026-05-04 18:13 49.67481 11.27656 29217 ft 458 kts 352°
2026-05-04 18:13 49.73862 11.26861 29978 ft 462 kts 352°
2026-05-04 18:14 49.77070 11.26460 30273 ft 464 kts 352°
2026-05-04 18:14 49.80299 11.26057 30550 ft 466 kts 352°
2026-05-04 18:14 49.83542 11.25651 30845 ft 469 kts 352°
2026-05-04 18:15 49.90084 11.24829 31445 ft 473 kts 352°
2026-05-04 18:15 49.96661 11.24736 32024 ft 481 kts
2026-05-04 18:15 49.99992 11.25274 32435 ft 480 kts
2026-05-04 18:16 50.03312 11.25885 32864 ft 479 kts
2026-05-04 18:16 50.06626 11.26514 33272 ft 478 kts
2026-05-04 18:16 50.09928 11.27147 33673 ft 477 kts
2026-05-04 18:17 50.16504 11.28413 34415 ft 474 kts
2026-05-04 18:17 50.19781 11.29046 34729 ft 474 kts
2026-05-04 18:17 50.26274 11.30304 35297 ft 473 kts
2026-05-04 18:18 50.29549 11.30939 35579 ft 473 kts
2026-05-04 18:18 50.32818 11.31574 35862 ft 473 kts
2026-05-04 18:18 50.36091 11.32209 36046 ft 474 kts
2026-05-04 18:18 50.39375 11.32849 36301 ft 474 kts
2026-05-04 18:19 50.45921 11.34128 36837 ft 473 kts
2026-05-04 18:19 50.49183 11.34766 37088 ft 473 kts
2026-05-04 18:19 50.52453 11.35407 37340 ft 473 kts
2026-05-04 18:20 50.55719 11.36049 37599 ft 473 kts
2026-05-04 18:20 50.58984 11.36691 37849 ft 472 kts
2026-05-04 18:20 50.62251 11.37333 37964 ft 472 kts
2026-05-04 18:20 50.65465 11.37966 37973 ft 469 kts
2026-05-04 18:21 50.71919 11.39241 37967 ft 466 kts
2026-05-04 18:21 50.78365 11.40518 37985 ft 466 kts
2026-05-04 18:22 50.84814 11.41798 37969 ft 466 kts
2026-05-04 18:22 50.91249 11.43079 37969 ft 466 kts
2026-05-04 18:23 50.97649 11.44357 37970 ft 466 kts
2026-05-04 18:23 51.04099 11.45648 37972 ft 466 kts
2026-05-04 18:24 51.10531 11.46940 37966 ft 466 kts
2026-05-04 18:24 51.16968 11.48237 37969 ft 466 kts
2026-05-04 18:25 51.22321 11.49317 37963 ft 466 kts
2026-05-04 18:25 51.29810 11.50832 37971 ft 467 kts
2026-05-04 18:26 51.35212 11.51929 37968 ft 467 kts
2026-05-04 18:26 51.41634 11.53237 37956 ft 467 kts
2026-05-04 18:27 51.48089 11.54554 37978 ft 467 kts
2026-05-04 18:27 51.54552 11.55878 37967 ft 467 kts
2026-05-04 18:28 51.61010 11.57203 37953 ft 468 kts
2026-05-04 18:28 51.67468 11.58533 37938 ft 468 kts
2026-05-04 18:29 51.73919 11.59865 37942 ft 467 kts
2026-05-04 18:29 51.80361 11.61200 37942 ft 466 kts
2026-05-04 18:30 51.89987 11.63199 37943 ft 466 kts
2026-05-04 18:31 51.96417 11.64541 37953 ft 467 kts
2026-05-04 18:31 52.02858 11.65889 37942 ft 463 kts
2026-05-04 18:32 52.09240 11.67227 37953 ft 467 kts
2026-05-04 18:32 52.15680 11.68582 37954 ft 466 kts
2026-05-04 18:33 52.22113 11.69940 37956 ft 466 kts
2026-05-04 18:33 52.28500 11.71291 37955 ft 466 kts
2026-05-04 18:34 52.34925 11.72654 37952 ft 466 kts
2026-05-04 18:34 52.41356 11.74023 37952 ft 466 kts
2026-05-04 18:35 52.47789 11.75397 37952 ft 466 kts
2026-05-04 18:35 52.54225 11.76775 37952 ft 466 kts
2026-05-04 18:36 52.60664 11.78158 37952 ft 466 kts
2026-05-04 18:36 52.67068 11.79537 37971 ft 466 kts
2026-05-04 18:37 52.73503 11.80927 37953 ft 467 kts
2026-05-04 18:37 52.79951 11.82324 37956 ft 467 kts
2026-05-04 18:38 52.86399 11.83726 37958 ft 467 kts
2026-05-04 18:38 52.92841 11.85130 37956 ft 467 kts
2026-05-04 18:39 52.99291 11.86540 37954 ft 467 kts
2026-05-04 18:39 53.05694 11.87944 37956 ft 467 kts
2026-05-04 18:40 53.12130 11.89360 37955 ft 467 kts
2026-05-04 18:40 53.18574 11.90781 37955 ft 467 kts
2026-05-04 18:41 53.25022 11.92208 37958 ft 467 kts
2026-05-04 18:41 53.31474 11.93639 37957 ft 467 kts
2026-05-04 18:42 53.37927 11.95077 37957 ft 467 kts
2026-05-04 18:42 53.44372 11.96517 37957 ft 466 kts
2026-05-04 18:43 53.50799 11.97956 37960 ft 465 kts
2026-05-04 18:43 53.57204 11.99396 37478 ft 466 kts
2026-05-04 18:43 53.60386 12.00112 36907 ft 466 kts
2026-05-04 18:44 53.63606 12.00839 36348 ft 466 kts
2026-05-04 18:44 53.65776 12.01329 36015 ft 465 kts
2026-05-04 18:44 53.70011 12.02289 35401 ft 462 kts
2026-05-04 18:44 53.73199 12.03012 34865 ft 462 kts
2026-05-04 18:45 53.76390 12.03735 34293 ft 462 kts
2026-05-04 18:45 53.79576 12.04459 33710 ft 462 kts
2026-05-04 18:45 53.82766 12.05183 32965 ft 464 kts
2026-05-04 18:45 53.85982 12.05913 32135 ft 469 kts
2026-05-04 18:46 53.89231 12.06652 31335 ft 473 kts
2026-05-04 18:46 53.92501 12.07400 30693 ft 474 kts
2026-05-04 18:46 53.95770 12.08152 30137 ft 472 kts
2026-05-04 18:46 53.99014 12.08898 29536 ft 470 kts
2026-05-04 18:47 54.02244 12.09643 29025 ft 466 kts
2026-05-04 18:47 54.05450 12.10383 28530 ft 462 kts
2026-05-04 18:47 54.08579 12.11106 28034 ft 457 kts
2026-05-04 18:47 54.11765 12.11843 27550 ft 453 kts
2026-05-04 18:48 54.14880 12.12563 27099 ft 449 kts
2026-05-04 18:48 54.17920 12.13269 26700 ft 444 kts
2026-05-04 18:48 54.20962 12.13975 26248 ft 440 kts
2026-05-04 18:48 54.23980 12.14675 25785 ft 436 kts
2026-05-04 18:49 54.26983 12.15374 25319 ft 433 kts
2026-05-04 18:49 54.29937 12.15631 24849 ft 417 kts 346°
2026-05-04 18:49 54.32674 12.14461 24402 ft 396 kts 329°
2026-05-04 18:49 54.34978 12.12082 23931 ft 382 kts 317°
2026-05-04 18:50 54.37066 12.09292 23474 ft 378 kts 315°
2026-05-04 18:50 54.39104 12.06469 22903 ft 375 kts 315°
2026-05-04 18:50 54.41125 12.03642 22354 ft 374 kts 315°
2026-05-04 18:50 54.43130 12.00827 21817 ft 371 kts 315°
2026-05-04 18:51 54.45145 11.98061 21273 ft 372 kts 319°
2026-05-04 18:51 54.47384 11.95770 20715 ft 377 kts 329°
2026-05-04 18:51 54.49889 11.94340 20181 ft 385 kts 343°
2026-05-04 18:51 54.52597 11.94101 19671 ft 394 kts
2026-05-04 18:52 54.55270 11.95281 19188 ft 402 kts 19°
2026-05-04 18:52 54.57744 11.97510 18758 ft 401 kts 26°
2026-05-04 18:52 54.60141 11.99951 18311 ft 398 kts 27°
2026-05-04 18:52 54.62508 12.02391 17816 ft 395 kts 27°
2026-05-04 18:53 54.64858 12.04804 17302 ft 392 kts 27°
2026-05-04 18:53 54.67192 12.07189 16812 ft 389 kts 27°
2026-05-04 18:53 54.69510 12.09553 16553 ft 385 kts 27°
2026-05-04 18:53 54.71820 12.11905 16291 ft 386 kts 27°
2026-05-04 18:54 54.74133 12.14260 16044 ft 385 kts 27°
2026-05-04 18:54 54.76437 12.16609 15786 ft 384 kts 27°
2026-05-04 18:54 54.78735 12.18955 15538 ft 382 kts 27°
2026-05-04 18:54 54.80990 12.21259 15290 ft 381 kts 27°
2026-05-04 18:55 54.83270 12.23592 15037 ft 380 kts 27°
2026-05-04 18:55 54.87801 12.28235 14541 ft 377 kts 27°
2026-05-04 18:55 54.90054 12.30549 14313 ft 376 kts 27°
2026-05-04 18:56 54.92306 12.32864 14080 ft 375 kts 27°
2026-05-04 18:56 54.94544 12.35168 13854 ft 374 kts 27°
2026-05-04 18:56 54.96782 12.37475 13582 ft 372 kts 27°
2026-05-04 18:56 54.99000 12.39765 13311 ft 371 kts 27°
2026-05-04 18:57 55.01213 12.42053 13055 ft 369 kts 27°
2026-05-04 18:57 55.03413 12.44330 12788 ft 367 kts 27°
2026-05-04 18:57 55.05575 12.46570 12530 ft 365 kts 27°
2026-05-04 18:57 55.07754 12.48831 12271 ft 364 kts 27°
2026-05-04 18:58 55.09926 12.51087 12020 ft 362 kts 27°
2026-05-04 18:58 55.12082 12.53330 11776 ft 357 kts 27°
2026-05-04 18:58 55.14174 12.55514 11669 ft 344 kts 27°
2026-05-04 18:58 55.16191 12.57623 11518 ft 331 kts 27°
2026-05-04 18:59 55.18132 12.59652 11401 ft 319 kts 27°
2026-05-04 18:59 55.20008 12.61614 11269 ft 310 kts 26°
2026-05-04 18:59 55.21851 12.63539 11056 ft 308 kts 26°
2026-05-04 18:59 55.23757 12.65203 10801 ft 303 kts 17°
2026-05-04 19:00 55.25737 12.66429 10556 ft 300 kts 13°
2026-05-04 19:00 55.27698 12.67542 10333 ft 293 kts 13°
2026-05-04 19:00 55.29592 12.68610 10204 ft 283 kts 13°
2026-05-04 19:00 55.31436 12.69649 10067 ft 274 kts 12°
2026-05-04 19:01 55.33262 12.70027 9961 ft 254 kts 346°
2026-05-04 19:01 55.34831 12.68936 9851 ft 238 kts 317°
2026-05-04 19:01 55.35803 12.66696 9749 ft 230 kts 288°
2026-05-04 19:01 55.36023 12.63947 9644 ft 229 kts 269°
2026-05-04 19:02 55.35928 12.61146 9537 ft 230 kts 265°
2026-05-04 19:02 55.35786 12.58327 9197 ft 233 kts 265°
2026-05-04 19:02 55.35637 12.55510 8924 ft 231 kts 265°
2026-05-04 19:02 55.35617 12.52706 8621 ft 229 kts 276°
2026-05-04 19:03 55.36036 12.50015 8323 ft 229 kts 294°
2026-05-04 19:03 55.37011 12.47795 8031 ft 234 kts 317°
2026-05-04 19:03 55.38491 12.46560 7728 ft 242 kts 345°
2026-05-04 19:03 55.40193 12.46761 7427 ft 252 kts 15°
2026-05-04 19:04 55.41641 12.48457 7129 ft 259 kts 45°
2026-05-04 19:04 55.42530 12.51230 6857 ft 262 kts 69°
2026-05-04 19:04 55.43065 12.54287 6624 ft 260 kts 73°
2026-05-04 19:04 55.43560 12.57367 6490 ft 261 kts 73°
2026-05-04 19:05 55.44103 12.60410 6245 ft 259 kts 65°
2026-05-04 19:05 55.45039 12.63069 6007 ft 254 kts 45°
2026-05-04 19:05 55.46281 12.65204 5747 ft 251 kts 38°
2026-05-04 19:05 55.47624 12.67208 5477 ft 249 kts 36°
2026-05-04 19:06 55.48949 12.69109 5232 ft 248 kts 36°
2026-05-04 19:06 55.50286 12.71006 4977 ft 246 kts 36°
2026-05-04 19:06 55.51616 12.72885 4810 ft 244 kts 36°
2026-05-04 19:06 55.52943 12.74758 4682 ft 244 kts 36°
2026-05-04 19:07 55.54265 12.76623 4551 ft 243 kts 36°
2026-05-04 19:07 55.55583 12.78483 4435 ft 242 kts 36°
2026-05-04 19:07 55.56897 12.80340 4309 ft 241 kts 36°
2026-05-04 19:07 55.58207 12.82193 4184 ft 240 kts 36°
2026-05-04 19:08 55.59511 12.84037 4051 ft 240 kts 36°
2026-05-04 19:08 55.60809 12.85875 3994 ft 239 kts 36°
2026-05-04 19:08 55.62105 12.87716 3989 ft 239 kts 36°
2026-05-04 19:08 55.63372 12.89616 3997 ft 239 kts 37°
2026-05-04 19:09 55.64625 12.91553 3988 ft 239 kts 38°
2026-05-04 19:09 55.65867 12.93489 3984 ft 234 kts 38°
2026-05-04 19:09 55.67063 12.95361 3899 ft 224 kts 38°
2026-05-04 19:09 55.68209 12.97155 3768 ft 217 kts 38°
2026-05-04 19:10 55.69332 12.98913 3537 ft 215 kts 37°
2026-05-04 19:10 55.70451 13.00661 3280 ft 214 kts 38°
2026-05-04 19:10 55.71601 13.02326 3040 ft 211 kts 27°
2026-05-04 19:10 55.72921 13.03371 2986 ft 207 kts 17°
2026-05-04 19:11 55.74279 13.04213 2988 ft 206 kts 15°
2026-05-04 19:11 55.75635 13.05036 2980 ft 205 kts 15°
2026-05-04 19:11 55.76509 13.05570 2965 ft 195 kts 15°
2026-05-04 19:11 55.77756 13.06337 2970 ft 187 kts 15°
2026-05-04 19:12 55.79000 13.06952 2969 ft 183 kts
2026-05-04 19:12 55.80807 13.04579 2978 ft 174 kts 282°
2026-05-04 19:12 55.80842 13.02424 2985 ft 176 kts 267°
2026-05-04 19:13 55.80719 13.00262 2978 ft 176 kts 265°
2026-05-04 19:13 55.80570 12.98089 2978 ft 177 kts 265°
2026-05-04 19:13 55.80410 12.95915 2977 ft 178 kts 260°
2026-05-04 19:13 55.79854 12.93948 2981 ft 181 kts 236°
2026-05-04 19:14 55.78982 12.92308 2982 ft 184 kts 226°
2026-05-04 19:14 55.78020 12.90805 2982 ft 184 kts 225°
2026-05-04 19:14 55.77053 12.89308 2983 ft 184 kts 225°
2026-05-04 19:14 55.76090 12.87815 2985 ft 184 kts 225°
2026-05-04 19:15 55.75140 12.86338 2984 ft 184 kts 225°
2026-05-04 19:15 55.74179 12.84843 2987 ft 183 kts 225°
2026-05-04 19:15 55.73220 12.83346 2882 ft 183 kts 225°
2026-05-04 19:15 55.72262 12.81851 2642 ft 183 kts 225°
2026-05-04 19:16 55.71306 12.80365 2390 ft 183 kts 225°
2026-05-04 19:16 55.70350 12.78878 2120 ft 183 kts 225°
2026-05-04 19:16 55.69398 12.77398 1863 ft 180 kts 225°
2026-05-04 19:16 55.68475 12.75966 1629 ft 172 kts 226°
2026-05-04 19:17 55.67600 12.74607 1396 ft 163 kts 225°
2026-05-04 19:17 55.66767 12.73313 1156 ft 155 kts 225°
2026-05-04 19:17 55.65983 12.72098 965 ft 145 kts 225°
2026-05-04 19:17 55.65238 12.70939 774 ft 139 kts 224°
2026-05-04 19:18 55.64506 12.69823 590 ft 138 kts 223°
2026-05-04 19:18 55.63781 12.68699 384 ft 138 kts 224°
2026-05-04 19:18 55.63058 12.67572 208 ft 139 kts 225°
2026-05-04 19:18 55.62334 12.66442 40 ft 137 kts 224°
2026-05-04 19:19 55.61742 12.65515 27 ft 76 kts 221°
2026-05-04 19:19 55.61474 12.65100 27 ft 44 kts 222°
2026-05-04 19:19 55.61288 12.64735 29 ft 34 kts 241°
2026-05-04 19:19 55.61227 12.64454 27 ft 18 kts 252°
2026-05-04 19:20 55.61193 12.64253 27 ft 17 kts 263°
2026-05-04 19:20 55.61247 12.64112 27 ft 15 kts 348°
2026-05-04 19:20 55.61341 12.64178 27 ft 15 kts 33°
2026-05-04 19:20 55.61434 12.64287 27 ft 17 kts 33°
2026-05-04 19:21 55.61534 12.64404 28 ft 18 kts 32°
2026-05-04 19:21 55.61643 12.64525 28 ft 19 kts 34°
2026-05-04 19:21 55.61756 12.64655 27 ft 20 kts 33°
2026-05-04 19:21 55.61872 12.64790 27 ft 19 kts 34°
2026-05-04 19:22 55.61965 12.64897 27 ft 13 kts 33°
2026-05-04 19:22 55.62005 12.65016 27 ft 12 kts 99°
2026-05-04 19:22 55.61960 12.65158 26 ft 14 kts 124°
2026-05-04 19:22 55.61910 12.65288 31 ft 10 kts 124°
2026-05-04 19:23 55.61887 12.65349 28 ft 2 kts 124°
2026-05-04 19:23 55.61884 12.65356 28 ft 0 kts 124°
2026-05-04 19:24 55.61862 12.65415 31 ft 13 kts 123°
2026-05-04 19:24 55.61801 12.65582 28 ft 19 kts 123°
2026-05-04 19:24 55.61717 12.65809 30 ft 23 kts 123°
2026-05-04 19:25 55.61629 12.66046 29 ft 24 kts 124°
2026-05-04 19:25 55.61534 12.66301 27 ft 26 kts 122°
2026-05-04 19:25 55.61437 12.66567 27 ft 23 kts 123°
2026-05-04 19:25 55.61360 12.66777 28 ft 20 kts 123°
2026-05-04 19:26 55.61292 12.66962 29 ft 13 kts 121°
2026-05-04 19:26 55.61299 12.67073 29 ft 9 kts 49°
2026-05-04 19:26 55.61376 12.67127 28 ft 13 kts
2026-05-04 19:26 55.61472 12.67111 28 ft 14 kts 349°
2026-05-04 19:27 55.61575 12.67075 28 ft 16 kts 349°
2026-05-04 19:27 55.61686 12.67037 28 ft 17 kts 349°
2026-05-04 19:27 55.61780 12.67003 28 ft 10 kts 348°
2026-05-04 19:27 55.61844 12.66993 28 ft 7 kts 18°
2026-05-04 19:28 55.61866 12.67061 28 ft 7 kts 75°
2026-05-04 19:28 55.61874 12.67125 28 ft 0 kts 78°